User: anonymous   Login
Location: Maiden
(35.5760°N, 81.2120°W)
Time: 22:36:27
(UTC-05:00)
Language:

Cosmos 2151 - Orbit

View from above orbital plane
View from above orbital plane
View from above satellite
View from above satellite

Ground track
Ground track

The orbit data is extracted from the following two-line orbital elements,

1 21422U 91042A   17021.17099060  .00000223  00000-0  19562-4 0  9994
2 21422  82.4993  26.3436 0015803  68.0838 292.2059 14.91763429386587
Epoch (UTC): 21 January 2017 04:06:13
Eccentricity: 0.0015803
inclination: 82.4993°
perigee height: 581 km
apogee height: 603 km
right ascension of ascending node: 26.3436°
argument of perigee: 68.0838°
revolutions per day: 14.91763429
mean anomaly at epoch: 292.2059°
orbit number at epoch: 38658

The dashed part of the orbit path shows where the satellite is in the earth's shadow,  

DLR